Погода в Нижнем Цее

Россия / Республика Северная Осетия — Алания     42°48′17″N   43°56′42″E
темп.,
°C
ветер,
м/с
пор.,
м/с
влажн.,
%
обл.,
%
осадки,
мм/ч
давл.,
гПа
погр.,
м
4 декабря, сб
сб400:00−10юз34610 0.0 102879
03:00−10юз235383 0.0 102849
06:00−10ююз12495 0.0 102820
09:00−6ююз125085 0.0 102444
12:000ююз234820 0.0 1017372
15:00−2ююз23620 0.0 1018161
18:00−9ююз34601 0.0 102451
21:00−8ююз4551100 0.0 102290
5 декабря, вс
вс500:00−7ююз454595 0.0 102079
03:00−6ююз4541100 0.0 101884
06:00−6ююз4542100 0.0 101791
09:00−4ююз4547100 0.1 1017129
12:00−1ююз5754100 0.0 1013431
15:00−3юз346278 0.0 1015148
18:00−9юз126126 0.0 102123
21:00−9ююз126344 0.0 102221
6 декабря, пн
пн600:00−9юз22725 0.0 102326
03:00−9юз118420 0.0 102319
06:00−9юз128727 0.0 102518
09:00−5юз238326 0.0 102270
12:00−1ююз347413 0.0 1019375
15:00−2ююз448639 0.0 1021242
18:00−4ююз459164 0.0 1024177
21:00−6ююз459287 0.0 1027108
7 декабря, вт
вт700:00−7ююз449338 0.0 102886
03:00−7ююз349129 0.0 102865
06:00−7ююз348626 0.0 102852
09:00−3ю34671 0.0 102479
12:00+2ююз44591 0.0 1019209
15:000ю44611 0.0 101992
18:00−5ю34450 0.0 102245
21:00−5ю44400 0.0 102245
8 декабря, ср
ср800:00−5ю44420 0.0 102154
03:00−6ю44420 0.0 102052
06:00−6ю44410 0.0 101855
09:00−2ю55460 0.0 1015113
12:00+1ю565498 0.1 1012214
15:00+1ю468155 0.3 1011148
18:00−2юз578883 1.4 1012234
21:00−2ююз5692100 4.1 1013271